User: anonymous   Login
Location: Maiden_LMO
(35.5760°N, 81.2120°W)
Time: 01:35:35
(UTC-04:00)
Language:

Cosmos 2278 Rocket - Orbit

View from above orbital plane
View from above orbital plane
View from above satellite
View from above satellite

Ground track
Ground track

The orbit data is extracted from the following two-line orbital elements,

1 23088U 94023B   16183.76387089 -.00000077  00000-0 -15156-4 0  9994
2 23088  71.0016 297.5366 0005677 272.8651  87.1822 14.14647108145983
Epoch (UTC): 01 July 2016 18:19:58
Eccentricity: 0.0005677
inclination: 71.0016°
perigee height: 839 km
apogee height: 847 km
right ascension of ascending node: 297.5366°
argument of perigee: 272.8651°
revolutions per day: 14.14647108
mean anomaly at epoch: 87.1822°
orbit number at epoch: 14598

The dashed part of the orbit path shows where the satellite is in the earth's shadow,  

DLR